Location: Tehachapi Municipal Airport
(35.1300°N, 118.4400°W)
Time: 10:41:34
(UTC-07:00)

Daily predictions for brighter satellites

Satellite Brightness Start Highest point End
(mag) Time Altitude Azimuth Time Altitude Azimuth Time Altitude Azimuth
RESURS DK-1 3.2 20:19:38 10° SW 20:23:42 58° WNW 20:27:46 10° NNE
Cosmos 1943 Rocket 2.3 20:18:15 10° NNW 20:23:50 64° ENE 20:29:19 10° SSE
Cosmos 1500 3.6 20:20:52 10° N 20:24:29 43° E 20:28:03 10° SSE
Cosmos 1536 Rocket 4.1 20:21:18 10° SSE 20:25:14 36° E 20:29:12 10° NNE
Cosmos 1680 Rocket 4.4 20:21:02 10° SSE 20:25:24 28° E 20:29:46 10° NE
Cosmos 1975 3.2 20:27:54 10° N 20:31:51 48° E 20:35:47 10° SSE
Iridium 4 Rocket 3.6 20:28:20 10° N 20:33:27 77° E 20:39:01 10° S
ISS -3.2 20:32:28 10° SSW 20:35:30 35° SE 20:38:32 10° ENE
Cosmos 2315 Rocket 4.1 20:31:23 10° S 20:37:38 89° W 20:43:59 10° N
Envisat 3.3 20:33:21 10° SSE 20:38:12 49° ENE 20:43:06 10° N
Aureole 3 Rocket 4.3 20:35:06 10° SSE 20:41:35 40° E 20:46:22 10° NNE
ALOS 4.4 20:38:03 10° SSW 20:41:58 26° W 20:45:54 10° NW
CZ-4B DEB 3.8 20:40:30 12° SE 20:42:49 26° ENE 20:45:23 10° NNE
COSMOS 2406 3.3 20:38:55 10° S 20:44:29 55° ESE 20:50:03 10° NNE
Resurs 1-3 4.1 20:40:55 10° S 20:45:15 63° W 20:49:37 10° NNW
Cosmos 1544 Rocket 3.5 20:40:59 10° N 20:45:19 83° E 20:49:38 10° S
Cosmos 1939 Rocket 3.4 20:42:44 10° SE 20:46:21 40° ENE 20:49:59 10° N
OAO 2 Rocket 3.2 20:43:43 10° WSW 20:48:39 80° S 20:53:39 10° E
USA 40 PKM 4.4 20:45:20 10° SW 20:48:51 75° NW 20:52:46 10° NE
Cosmos 1437 2.6 20:49:00 10° S 20:52:12 84° E 20:55:26 10° N
Cosmos 1743 3.4 20:48:35 10° N 20:52:14 38° E 20:55:13 14° SE
ASTRO E2 3.1 20:50:18 10° WSW 20:54:08 48° S 20:57:04 16° ESE
Resurs 01 Rocket 2.8 20:50:07 10° S 20:54:19 42° W 20:58:32 10° NNW
CZ-2D R/B 4.5 20:51:04 10° S 20:54:41 41° W 20:58:19 10° NNW
Helios 1B rocket 2.4 20:50:37 10° NNE 20:54:45 80° ESE 20:58:53 10° S
SJ-11-01 4.3 20:55:39 10° SSE 21:00:13 66° ENE 21:04:52 10° N
COSMOS 2455 3.0 20:58:27 10° NNW 21:04:27 73° WSW 21:10:06 12° SSE
Cosmos 1455 Rocket 3.6 21:06:13 10° NNW 21:10:30 58° W 21:14:44 10° S
Cosmos 923 Rocket 4.2 21:05:56 10° SSW 21:11:15 77° WNW 21:16:35 10° NNE
Nadezhda 1 Rocket 4.1 21:08:54 10° S 21:15:05 59° E 21:21:21 10° NNE
Meteor 1-29 3.4 21:12:49 10° N 21:16:10 61° WNW 21:19:28 10° SSW
Cosmos 1346 2.9 21:14:33 12° SSW 21:17:02 74° W 21:19:48 10° N
Cosmos 1666 2.7 21:16:14 10° N 21:19:55 55° E 21:21:38 28° SSE
Cosmos 192 4.2 21:17:49 10° S 21:22:41 71° ESE 21:27:35 10° NNE
ERS-1 Rocket 3.1 21:21:29 23° SE 21:24:29 57° ENE 21:29:25 10° N
Meteor 2-9 Rocket 4.4 21:19:30 10° N 21:24:53 54° E 21:28:07 24° SSE
SAR-Lupe-4 4.3 21:25:01 15° S 21:27:44 49° W 21:31:14 10° NNW
Okean 2 4.0 21:27:33 31° SE 21:28:36 37° E 21:32:23 10° NNE
YAOGAN 6 2.4 21:27:40 29° S 21:29:20 89° WSW 21:32:51 10° NNW
Cosmos 2154 Rocket 4.5 21:23:20 10° N 21:29:23 44° E 21:32:35 26° SE
Meteor 2-4 Rocket 3.7 21:26:03 10° S 21:31:38 88° E 21:37:25 10° N
Cosmos 1833 Rocket 4.2 21:35:45 17° E 21:35:45 17° E 21:38:32 10° ENE
Aureole 1 Rocket 3.0 21:32:19 10° SSW 21:35:47 53° WNW 21:38:48 10° N
H-2A R/B 3.0 21:42:53 25° E 21:44:03 28° ENE 21:48:16 10° NNE
Cosmos 1515 4.4 21:47:20 35° ENE 21:47:20 35° ENE 21:50:28 10° NNE
Okean 1-7 Rocket 3.6 21:44:29 20° SSW 21:47:29 78° W 21:52:00 10° N
Cosmos 1656 Rocket 4.2 21:43:39 10° NNW 21:48:57 52° WSW 21:52:17 22° S
SL-27 R/B 3.7 21:45:45 10° SW 21:49:14 43° WNW 21:52:44 10° N
MetOp-A 4.1 21:46:50 33° SSE 21:49:17 75° ENE 21:54:39 10° N
Cosmos 967 Rocket 4.4 21:43:20 10° SSW 21:49:29 63° ESE 21:55:40 10° NE
GENESIS II 4.1 21:46:00 10° NNW 21:49:57 73° ENE 21:50:35 57° ESE
SPOT 5 2.8 21:50:51 44° ESE 21:51:41 51° ENE 21:55:53 10° N
Tiangong 2 2.9 21:48:57 10° W 21:51:51 32° NNW 21:54:07 14° NE
CENTAUR R/B 3.3 21:44:03 10° NW 21:52:05 68° WSW 21:57:22 25° SSE
Cosmos 1624 Rocket 4.5 21:49:57 10° N 21:55:02 46° ENE 21:56:22 38° ESE
Cosmos 1892 Rocket 3.7 21:55:46 49° ESE 21:56:10 50° E 22:00:28 10° NNE
Cosmos 2228 4.4 21:53:43 10° NNE 21:56:54 24° ENE 21:56:54 24° ENE
Cosmos 2341 Rocket 4.2 21:53:01 10° N 21:59:15 56° E 22:01:28 38° SE
Terra 3.4 21:59:17 20° ENE 21:59:35 20° ENE 22:03:02 10° NNE
Cosmos 921 Rocket 4.1 21:57:46 10° N 22:01:43 30° ENE 22:01:49 30° ENE
Cosmos 1980 Rocket 4.5 22:06:08 10° NE 22:06:54 10° NE 22:07:39 10° ENE
DNEPR-1 R/B 3.9 22:04:35 10° NW 22:08:52 61° WSW 22:09:48 49° SSW
ASTEX 1 4.5 22:08:33 19° SSW 22:11:36 40° W 22:16:12 10° NNW
ISS -1.1 22:09:28 10° W 22:12:03 21° NNW 22:14:40 10° NNE
Cosmos 1606 Rocket 3.3 22:08:33 10° N 22:12:53 81° E 22:13:08 76° SE
Cosmos 405 3.9 22:09:47 10° NNW 22:13:11 43° W 22:13:28 41° WSW
Cosmos 2056 Rocket 3.4 22:08:52 10° N 22:13:59 64° ENE 22:14:45 56° ESE
ARGOS 3.2 22:17:43 47° S 22:19:20 77° WSW 22:24:46 10° NNW
Meteor 1-15 Rocket 4.3 22:14:19 10° NNW 22:19:52 70° W 22:21:44 42° SSW
YAOGAN 11 4.3 22:19:52 53° SW 22:20:28 60° WSW 22:24:44 10° NNW
COSMOS 2487 4.0 22:22:42 29° NNE 22:22:42 29° NNE 22:24:35 10° NNE
Cosmos 1726 Rocket 3.4 22:19:03 10° N 22:23:20 87° NE 22:23:20 87° NE
MOS 1-B Rocket 4.4 22:23:42 34° SSW 22:26:01 56° W 22:32:05 10° NNW
Cosmos 2181 Rocket 4.0 22:25:00 38° S 22:27:39 85° W 22:33:59 10° N
Cosmos 2058 Rocket 3.1 22:28:30 10° N 22:32:33 73° NNE 22:32:33 73° NNE
OAO 2 Rocket 3.1 22:28:28 10° W 22:33:23 85° SSW 22:33:23 85° SSW
SPOT 1/Viking Rocket 3.5 22:34:28 66° SSW 22:35:08 77° WSW 22:40:19 10° NNW
Cosmos 2082 Rocket 2.0 22:36:23 70° SSE 22:36:49 74° ESE 22:42:29 10° NNE
CZ-3A R/B 3.4 22:36:30 10° W 22:38:08 15° WNW 22:38:08 15° WNW
Cosmos 2278 3.6 22:33:16 10° NNW 22:38:58 67° ENE 22:39:25 64° E
Cosmos 1452 Rocket 3.9 22:41:03 10° N 22:45:56 50° ENE 22:45:56 50° ENE
CZ-4 R/B 4.4 22:49:48 10° NNE 22:53:45 51° NE 22:53:45 51° NE
H-2A R/B 2.7 22:55:51 55° N 22:55:51 55° N 22:59:29 10° N
Cosmos 839 Rocket 4.3 22:49:02 10° NNW 22:55:50 86° WSW 22:57:31 59° SSE
Cosmos 2369 3.6 22:52:16 10° NNW 22:58:01 84° WSW 22:58:05 84° SW
Cosmos 864 Rocket 4.4 22:54:12 10° N 23:00:29 74° E 23:00:44 73° ESE
Cosmos 1697 Rocket 3.1 22:58:56 10° N 23:04:07 52° NE 23:04:07 52° NE
SL-8 Rocket 4.4 23:10:38 10° NNW 23:16:43 55° W 23:17:28 52° WSW
Meteor 2-21 4.4 23:11:10 10° N 23:17:12 75° W 23:17:15 75° W
Cosmos 1833 Rocket 3.3 23:17:22 46° W 23:18:19 51° WNW 23:23:47 10° N
Cosmos 1656 3.8 23:14:28 10° NNW 23:19:14 66° NW 23:19:14 66° NW
Meteor 2-21 Rocket 4.3 23:14:27 10° N 23:20:18 84° NNW 23:20:18 84° NNW
Cosmos 2366 rocket 4.0 23:15:20 10° NNW 23:21:27 70° W 23:21:35 69° WSW
USA 267 3.1 23:16:18 10° NE 23:22:52 86° SE 23:23:17 79° SSW
SeaSat 1 4.4 23:23:09 19° NE 23:23:09 19° NE 23:26:31 10° N
H-2A R/B 3.5 23:23:31 27° W 23:23:31 27° W 23:27:34 10° NW
Terra 3.3 23:38:10 31° WNW 23:38:10 31° WNW 23:41:25 10° NNW
Timation 2 Rocket 4.4 23:41:29 53° W 23:42:13 57° WNW 23:48:19 10° NNE
Cosmos 1980 Rocket 2.7 23:46:07 10° NNW 23:50:34 56° N 23:50:34 56° N
CZ-2C R/B 4.3 23:54:38 36° NE 23:54:38 36° NE 23:58:43 10° N
